Terminal Aerodrome Forecast
Issued by NWS

Home | Current Version | Previous Version | Text Only | Print | Product List | Glossary On
Versions: 1 2 3 4 5 6 7 8 9 10 11 12 13 14
758
FTAK31 PAJN 262328
TAFAKT
TAF
PAKT 262328Z 2700/2724 10007KT P6SM OVC060
     FM270200 15007KT P6SM -RA SCT025 OVC045 WS020/11025KT
     FM270600 15009KT 5SM -RA BR BKN025 OVC035 WS020/12030KT
     FM271200 14012G20KT 4SM -RA BR BKN015 OVC022 WS020/16035KT
      AMD LTD TO CLD VIS AND WIND 2706/2715=

USA.gov is the U.S. government's official web portal to all federal, state and local government web resources and services.